Bismarck, ND

2:52 PM CST on February 09, 2016 (GMT -0600)
Bismarck Municipal

Weather History for KBIS - February, 2014

Change the Weather History Date:

Monday, February 17, 2014

  Actual Average Record
Temperature  
Mean Temperature 31 °F 19 °F  
Max Temperature 42 °F 29 °F 59 °F (1954)
Min Temperature 20 °F 9 °F -30 °F (1903)
Degree Days  
Heating Degree Days 34 46  
Month to date heating degree days 962 828  
Since 1 July heating degree days 6271 5946  
Cooling Degree Days 0 0  
Month to date cooling degree days 0 0  
Year to date cooling degree days 0 0  
Moisture  
Dew Point 22 °F    
Average Humidity 69    
Maximum Humidity 92    
Minimum Humidity 46    
Precipitation  
Precipitation 0.00 in 0.02 in 0.25 in (1891)
Month to date precipitation 0.12 0.26  
Year to date precipitation 0.50 0.69  
Snow  
Snow 0.00 in 0.30 in 2.50 in (1931)
Month to date snowfall 1.7 4.5  
Since 1 July snowfall 24.6 33.9  
Snow Depth 2.00 in    
Sea Level Pressure  
Sea Level Pressure 29.70 in    
Wind  
Wind Speed 10 mph (West)    
Max Wind Speed 21 mph    
Max Gust Speed 26 mph    
Visibility 10 miles    
Events      
T = Trace of Precipitation, MM = Missing Value Source: NWS Daily Summary

Daily Weather History Graph

Daily Weather History Graph

Search for Another Location

Airport or City:

Trip Planner

Search our weather history database for the weather conditions in past years. The results will help you decide how hot, cold, wet, or windy it might be!

Date:

Astronomy

Feb. 17, 2014 Rise Set
Actual Time 7:43 AM CST 6:11 PM CST
Civil Twilight 7:12 AM CST 6:42 PM CST
Nautical Twilight 6:37 AM CST 7:17 PM CST
Astronomical Twilight 6:02 AM CST 7:52 PM CST
Moon 9:21 PM CST (2/17) 8:33 AM CST (2/17)
Length of Visible Light 11h 29m
Length of Day
10h 27m
Waning Gibbous, 93% of the Moon is Illuminated
Feb 17
Waning Gibbous
Feb 22
Last Quarter
Mar 1
New
Mar 8
First Quarter
Mar 16
Full

Hourly Weather History & Observations

Time (CST) Temp. Windchill Dew Point Humidity Pressure Visibility Wind Dir Wind Speed Gust Speed Precip Events Conditions
12:04 AM 21.9 °F - 19.0 °F 89% 29.68 in 9.0 mi Calm Calm - N/A   Overcast
12:32 AM 21.0 °F - 19.0 °F 92% 29.67 in 9.0 mi Calm Calm - N/A   Overcast
12:52 AM 21.0 °F - 18.0 °F 88% 29.75 in 9.0 mi Calm Calm - N/A   Overcast
1:52 AM 19.9 °F - 17.1 °F 89% 29.76 in 8.0 mi Calm Calm - N/A   Clear
2:52 AM 23.0 °F 15.8 °F 19.9 °F 88% 29.75 in 9.0 mi West 5.8 mph - N/A   Clear
3:52 AM 33.1 °F 23.4 °F 24.1 °F 70% 29.73 in 10.0 mi WNW 13.8 mph - N/A   Clear
4:52 AM 30.9 °F 22.2 °F 21.0 °F 67% 29.76 in 10.0 mi WNW 10.4 mph - N/A   Clear
5:52 AM 28.9 °F 17.7 °F 19.0 °F 67% 29.77 in 10.0 mi WNW 15.0 mph 20.7 mph N/A   Clear
6:52 AM 27.0 °F 15.6 °F 19.0 °F 72% 29.78 in 10.0 mi WNW 13.8 mph - N/A   Clear
7:52 AM 27.0 °F 15.2 °F 18.0 °F 69% 29.80 in 10.0 mi WNW 15.0 mph - N/A   Clear
8:52 AM 28.0 °F 16.1 °F 18.0 °F 66% 29.82 in 10.0 mi WNW 16.1 mph - N/A   Clear
9:52 AM 32.0 °F 23.6 °F 19.9 °F 61% 29.82 in 10.0 mi WNW 10.4 mph - N/A   Clear
10:52 AM 34.0 °F 25.0 °F 21.0 °F 59% 29.81 in 10.0 mi WNW 12.7 mph - N/A   Clear
11:52 AM 37.9 °F 28.9 °F 21.9 °F 53% 29.80 in 10.0 mi West 16.1 mph - N/A   Clear
12:52 PM 39.9 °F 32.5 °F 21.9 °F 49% 29.76 in 10.0 mi WSW 12.7 mph - N/A   Clear
1:52 PM 41.0 °F 35.2 °F 23.0 °F 49% 29.73 in 10.0 mi SW 9.2 mph - N/A   Clear
2:52 PM 41.0 °F 32.8 °F 23.0 °F 49% 29.70 in 10.0 mi WSW 16.1 mph - N/A   Clear
3:52 PM 42.1 °F 35.2 °F 24.1 °F 49% 29.66 in 10.0 mi SW 12.7 mph - N/A   Clear
4:52 PM 41.0 °F 33.5 °F 26.1 °F 55% 29.63 in 10.0 mi SW 13.8 mph - N/A   Partly Cloudy
5:52 PM 39.9 °F 32.5 °F 27.0 °F 60% 29.62 in 10.0 mi SW 12.7 mph - N/A   Clear
6:52 PM 37.9 °F 32.1 °F 28.0 °F 68% 29.61 in 10.0 mi SW 8.1 mph - N/A   Clear
7:52 PM 34.0 °F 27.2 °F 26.1 °F 73% 29.60 in 10.0 mi West 8.1 mph - N/A   Clear
8:52 PM 32.0 °F 24.8 °F 25.0 °F 75% 29.59 in 10.0 mi West 8.1 mph - N/A   Clear
9:52 PM 30.9 °F 24.3 °F 25.0 °F 79% 29.57 in 10.0 mi WSW 6.9 mph - N/A   Clear
10:52 PM 33.1 °F 28.7 °F 26.1 °F 75% 29.55 in 10.0 mi West 4.6 mph - N/A   Clear
11:52 PM 27.0 °F 23.0 °F 21.9 °F 81% 29.54 in 10.0 mi West 3.5 mph - N/A   Clear